Other Public Products
Issued by NWS Charleston, SC

Home | Current Version | Previous Version | Text Only | Print | Product List | Glossary On
Versions: 1 2 3 4 5 6 7 8 9 10 11 12 13 14 15 16 17 18 19 20 21 22 23 24 25 26 27 28 29 30 31 32 33 34 35 36 37 38 39 40 41 42 43 44 45 46 47 48 49 50
000
FPUS82 KCHS 030127
OPUCHS

TEST...KCHS/KSAV Gateway Observations...TEST
National Weather Service Charleston SC
800 PM EST FRI DEC 02 2016

NOTE: "fair" indicates few or no clouds below 12,000 feet with no
significant weather and/or obstructions to visibility.

SCZ050-WAZ558-NCZ071-TXZ119-213-PAZ071-DCZ001-FLZ074-172-MI076-
NYZ176-178-MAZ016-IL014-TNZ027-NJZ106-GAZ044-MD014-030200-
...Gateway Observations for Charleston International...

CITY           SKY/WX    TMP DP  RH WIND       PRES   REMARKS
Chas Airport   CLEAR     47  37  68 CALM      30.19R
Seattle        LGT RAIN  46  45  96 SW13      30.12S FOG
Charlotte      PTCLDY    50  20  30 W7        30.17S
Dallas DFW     LGT RAIN  58  40  51 E8        30.10R
Dallas Love    LGT RAIN  59  40  49 E10       30.11R
Philladelphia  CLOUDY    45  28  51 W20G25    30.01S
Wash National  MOCLDY    46  28  49 NW16G28   30.12R
Baltimore      CLOUDY    43  28  55 W10       30.08F
Miami          PTCLDY    76  71  85 NE6       30.06R
Detroit        CLOUDY    37  27  67 W13       30.20R WCI  29
Newark         MOCLDY    46  28  49 W16G24    29.91S
Laguardia      MOCLDY    48  28  46 W15G24    29.89S
J F K          PTCLDY    48  27  44 W23G30    29.91S
Boston Logan   CLEAR     44  28  53 W13G21    29.75S
Ft. Lauderdale CLOUDY    77  70  79 NE8       30.05R
Chicago O`Hare CLOUDY    36  25  64 N8        30.28R WCI  30
Chicago Midway CLOUDY    38  26  62 W9        30.29R WCI  31
Houston Bush   LGT RAIN  55  52  89 E10G21    30.06R
Houston Hobby  CLOUDY    57  52  83 NE17G25   30.03S
Nashville      PTCLDY    49  26  41 N6        30.29S
Atlanta        PTCLDY    51  31  46 N8        30.24S

$$

GAZ044-118-TXZ119-213-NCZ071-DCZ001-MDZ014-506-PAZ021-071-NJZ106-
NYZ176-178-MAZ106-OHZ011-021-055-MIZ076-KYZ091-ILZ014-INZ047-
MNZ060-030200-
...Gateway Observations for Savannah International...

CITY           SKY/WX    TMP DP  RH WIND       PRES   REMARKS
Savannah Arpt  PTCLDY    46  39  76 CALM      30.22R
Atlanta        PTCLDY    51  31  46 N8        30.24S
Charlotte      PTCLDY    50  20  30 W7        30.17S
Dallas DFW     LGT RAIN  58  40  51 E8        30.10R
Houston Bush   LGT RAIN  55  52  89 E10G21    30.06R
Wash National  MOCLDY    46  28  49 NW16G28   30.12R
Wash Dulles    CLOUDY    43  27  53 W12G22    30.12R
Baltimore      CLOUDY    43  28  55 W10       30.08F
Philadelphia   CLOUDY    45  28  51 W20G25    30.01S
Newark         MOCLDY    46  28  49 W16G24    29.91S
Laguardia      MOCLDY    48  28  46 W15G24    29.89S
J F K          PTCLDY    48  27  44 W23G30    29.91S
Boston         CLEAR     44  28  53 W13G21    29.75S
Pittsburg      FLURRIES  38  32  79 W10       30.13R WCI  31
Akron          CLOUDY    37  31  78 W13       30.15R WCI  29
Cleveland      CLOUDY    39  29  67 W16       30.19R WCI  30
Cincinnati     CLOUDY    39  30  70 W7        30.29R WCI  34
Columbus       CLOUDY    37  30  74 W9        30.25R WCI  31
Detroit        CLOUDY    37  27  67 W13       30.20R WCI  29
Chicago O`Hare CLOUDY    36  25  64 N8        30.28R WCI  30
Minneapolis    CLOUDY    31  23  72 W9        30.29S WCI  23
Indianapolis   CLOUDY    38  33  82 W9        30.30R WCI  31

$$




USA.gov is the U.S. government's official web portal to all federal, state and local government web resources and services.